Location: Goodsell Observatory
(44.4617°N, 93.1522°W)
Time: 03:24:46
(UTC-05:00)

Daily predictions for brighter satellites

Satellite Brightness Start Highest point End
(mag) Time Altitude Azimuth Time Altitude Azimuth Time Altitude Azimuth
Cosmos 2297 Rocket 4.5 02:34:24 20° NNE 02:34:24 20° NNE 02:36:04 10° NNE
SL-16 R/B 4.0 02:50:33 30° NNE 02:50:33 30° NNE 02:53:45 10° N
ADEOS Rocket 4.4 02:46:32 10° NNE 02:50:02 36° NNE 02:50:02 36° NNE
Cosmos 2227 Rocket 4.0 03:34:18 24° N 03:34:18 24° N 03:36:58 10° N
Resurs 1-4 Rocket 3.6 03:27:29 10° NNE 03:30:23 33° NNE 03:30:23 33° NNE
Cosmos 2263 Rocket 4.1 03:40:13 21° ESE 03:41:13 22° E 03:45:29 10° NE
Cosmos 2279 Rocket 4.3 03:45:59 59° E 03:45:59 59° E 03:51:47 10° NNE
ADEOS 4.4 03:50:06 10° NNE 03:53:46 46° NNE 03:53:46 46° NNE
Cosmos 1140 Rocket 4.3 03:58:10 46° ENE 03:58:10 46° ENE 04:02:32 10° NNE
CZ-4C R/B 3.4 04:03:04 33° NNW 04:03:04 33° NNW 04:07:56 10° NNE
CZ-2D R/B 3.2 04:03:20 10° N 04:06:25 34° NNW 04:06:25 34° NNW
Cosmos 2297 Rocket 3.9 04:16:13 21° NNW 04:16:13 21° NNW 04:19:23 10° N
Cosmos 1954 Rocket 4.1 04:22:58 74° N 04:22:58 74° N 04:27:49 10° NNE
Cosmos 614 Rocket 4.0 04:22:57 72° E 04:22:57 72° E 04:27:52 10° NNE
Cosmos 1378 Rocket 4.3 04:25:23 49° NNE 04:25:23 49° NNE 04:28:40 10° NNE
ARIANE 5 R/B 3.6 04:22:02 10° N 04:25:18 34° NNW 04:25:18 34° NNW
Cosmos 676 Rocket 4.2 04:27:46 60° NNW 04:27:46 60° NNW 04:32:23 10° NNE
BREEZE-M DEB (TANK) 4.1 04:27:18 36° WNW 04:29:41 57° N 04:32:59 10° E
SL-16 R/B 4.3 04:35:39 15° NW 04:35:39 15° NW 04:36:58 10° NW
Cosmos 2180 Rocket 4.3 04:31:53 68° SW 04:32:33 75° W 04:38:46 10° N
Cosmos 1570 Rocket 4.3 04:32:44 10° NNW 04:38:02 68° ENE 04:43:19 10° SSE
Abrixas rocket 3.9 04:44:49 32° ENE 04:44:49 32° ENE 04:46:43 10° ENE
Okean O Rocket 3.3 04:39:51 10° NE 04:43:42 30° E 04:47:32 10° SSE
Cosmos 2208 Rocket 4.2 04:40:09 10° NNW 04:45:28 70° ENE 04:50:40 10° SSE
Cosmos 2266 Rocket 3.9 04:49:09 10° N 04:55:35 80° W 05:01:59 10° S
Cosmos 1975 3.2 04:51:33 10° N 04:55:38 66° E 04:59:42 10° SSE
ADEOS II 2.1 04:50:29 10° NNE 04:55:46 78° ESE 04:58:42 27° S
ATLAS 3B R/B 3.9 04:51:41 10° S 04:58:32 42° ESE 05:05:08 10° NE
Lacrosse 5 rocket 3.7 04:59:24 11° NNW 05:00:40 13° N 05:02:26 10° NNE
DELTA 2 R/B (1) 3.8 05:01:57 45° SW 05:03:01 52° S 05:08:24 10° ESE
PSLV R/B 3.9 04:59:47 10° NNE 05:03:38 68° ESE 05:04:49 41° S
Okean 1 3.2 05:04:23 59° S 05:05:07 90° W 05:09:09 10° N
Cosmos 1666 4.1 05:04:17 10° N 05:07:50 38° ENE 05:11:23 10° SSE
Tiangong 1 3.2 05:09:36 16° SE 05:09:36 16° SE 05:10:21 10° SE
ASTEX 1 3.3 05:03:14 10° N 05:08:08 63° W 05:09:52 39° SW
Meteor 1-18 Rocket 4.2 05:05:26 24° SSW 05:09:11 78° W 05:15:09 10° N
SL-8 R/B 3.6 05:09:12 49° SW 05:10:27 81° SSE 05:15:17 10° ENE
Resurs 1-4 Rocket 3.8 05:08:42 10° NNW 05:11:27 17° NW 05:11:27 17° NW
Cosmos 1943 3.4 05:09:37 10° NW 05:14:59 43° WSW 05:20:19 10° S
Cosmos 1743 3.0 05:14:23 10° N 05:18:18 68° E 05:22:11 10° SSE
Cosmos 1607 3.9 05:15:19 32° SW 05:18:22 71° NW 05:24:47 10° NNE
PSLV R/B 3.4 05:18:23 10° NNE 05:22:35 84° WNW 05:25:26 20° SSW
Atlas Centaur 2 3.8 05:22:30 18° SSW 05:24:05 19° S 05:27:49 10° SE
CZ-4B R/B 2.7 05:20:24 10° N 05:24:32 76° WNW 05:26:42 26° SSW
Cosmos 2263 Rocket 2.3 05:21:57 30° SW 05:24:39 59° WNW 05:30:19 10° NNE
PAYLOAD B 4.3 05:21:38 10° NNE 05:27:11 80° ESE 05:32:41 10° SSW
Cosmos 1544 Rocket 3.4 05:23:59 10° NNW 05:28:19 73° W 05:32:39 10° S
Cosmos 1975 Rocket 3.5 05:30:32 33° WSW 05:31:40 39° WNW 05:35:50 10° N
USA 215 4.0 05:26:18 10° E 05:32:35 52° NNE 05:38:52 10° NW
Cosmos 1741 Rocket 4.3 05:31:25 27° WSW 05:33:51 47° WNW 05:38:57 10° N
Meteor PRIRODA 4.2 05:31:30 10° NNE 05:35:10 59° E 05:38:48 10° S
Cosmos 1455 Rocket 2.9 05:31:44 10° NNW 05:36:03 68° W 05:40:19 10° S
Meteor 1-4 Rocket 2.3 05:35:26 10° N 05:38:57 86° W 05:42:24 10° S
Cosmos 1437 Rocket 3.6 05:35:51 10° NNW 05:39:10 29° W 05:39:10 29° W
Cosmos 841 Rocket 4.3 05:37:07 10° NNW 05:42:13 55° ENE 05:47:20 10° SE
CZ-4B R/B 4.4 05:38:51 10° NNE 05:42:42 58° E 05:46:42 10° S
Cosmos 468 Rocket 4.0 05:37:55 10° NNW 05:43:13 67° WSW 05:48:28 10° S
Okean-O 4.3 05:43:04 10° NNE 05:47:10 35° E 05:51:14 10° SSE
ATLAS 5 CENTAUR R/B 3.4 05:41:49 10° NNW 05:47:28 48° NE 05:53:41 10° ESE
Meteor 1-13 Rocket 4.3 05:41:57 10° S 05:47:55 88° W 05:53:53 10° N
CZ-4C R/B 4.4 05:49:32 10° NW 05:52:58 15° N 05:56:40 10° NNE
Cosmos 1536 Rocket 3.5 05:52:38 10° SSW 05:56:56 67° W 06:01:18 10° N
Cosmos 1900 4.5 05:53:20 10° NNW 05:58:32 86° ENE 06:03:37 10° SSE
MTI 3.8 05:56:19 10° SSE 05:59:34 84° ENE 06:02:51 10° NNW
CZ-4B R/B 3.1 05:55:30 10° N 06:00:43 62° WNW 06:05:57 10° SSW
Intercosmos 25 Rocket 3.8 05:57:11 10° SSW 06:00:58 34° W 06:04:00 10° N
Cosmos 1763 Rocket 3.5 05:56:53 10° NNW 06:02:12 78° WSW 06:07:30 10° SSE
CZ-3 R/B 3.7 05:49:54 11° WSW 06:04:13 28° S 06:09:52 10° SE
Cosmos 1745 Rocket 4.1 06:00:37 10° N 06:07:01 90° W 06:13:21 10° S
Meteor 2-4 Rocket 3.7 06:02:31 10° SSW 06:08:05 82° W 06:13:52 10° N
Cosmos 1271 Rocket 3.5 06:05:15 10° N 06:09:12 58° ENE 06:13:09 10° SSE
Lacrosse 4 Rocket 4.0 06:06:30 10° N 06:09:52 21° NE 06:13:09 10° E
USA 238 DEB 3.8 06:03:18 10° SW 06:10:16 89° NW 06:17:20 10° NE
USA 238 3.8 06:03:25 10° SW 06:10:22 90° S 06:17:26 10° NE
Meteor 1-19 Rocket 4.4 06:07:40 10° SSW 06:13:24 54° WNW 06:19:05 10° N
Cosmos 1553 Rocket 3.9 06:08:36 10° SSW 06:14:43 71° W 06:20:48 10° N
TELKOM 3 3.4 06:13:13 16° W 06:14:47 44° NNW 06:16:50 10° NE
GEOS 3 Rocket 3.7 06:10:54 10° SE 06:16:06 87° NE 06:21:27 10° NW
Cosmos 371 Rocket 4.2 06:12:29 10° NW 06:16:35 28° W 06:20:40 10° SSW
NOAA 6 4.4 06:12:21 10° NNE 06:17:34 70° ESE 06:22:43 10° S
Okean 1-7 Rocket 4.2 06:15:16 10° S 06:19:43 65° E 06:24:15 10° NNE
Okean O Rocket 2.6 06:16:20 10° N 06:20:00 27° WNW 06:23:39 10° SW
Abrixas rocket 3.0 06:17:23 11° WNW 06:20:18 40° N 06:23:25 10° ENE
Meteor 2-9 Rocket 4.3 06:19:37 10° NNW 06:24:52 52° W 06:30:13 10° S
CZ-2C R/B 4.3 06:22:09 10° SSW 06:26:33 39° W 06:31:01 10° NNW
USA 116 3.8 06:24:18 10° SSW 06:27:16 34° W 06:30:09 10° NNW
Cosmos 1025 Rocket 3.1 06:23:06 10° S 06:27:21 87° ESE 06:31:41 10° N
COSMOS 2406 3.3 06:28:12 10° NNW 06:33:52 60° WSW 06:39:30 10° S
S3M 4.2 06:28:29 10° SSW 06:34:38 55° WNW 06:40:53 10° N
ADEOS II 3.7 06:31:42 10° NNW 06:34:51 16° WNW 06:37:59 10° W
Cosmos 389 Rocket 2.4 06:31:32 10° NNW 06:35:01 79° W 06:38:29 10° S
